GW1851 Weather Reports


time (UTC)temp
C
wind
direction
speed
KPH
gust
KPH
rain 1hr
cm
rain 24hr
cm
rain mn
cm
humidity
%
barometer
mb
20260906053045 23 219 0.0 0.0 0.00 0.00 0.00 95 1016.4
20260906052541 23 218 0.0 1.6 0.00 0.00 0.00 95 1016.3
20260906052038 23 212 0.0 0.0 0.00 0.00 0.00 94 1016.1
20260906051533 23 190 0.0 1.6 0.00 0.00 0.00 95 1015.9
20260906051028 23 225 0.0 0.0 0.00 0.00 0.00 95 1016.0
20260906050524 23 224 0.0 0.0 0.00 0.00 0.00 94 1016.1
20260906050018 23 226 0.0 0.0 0.00 0.00 0.00 94 1016.0
20260906045516 23 210 0.0 0.0 0.00 0.00 0.00 94 1015.9
20260906045013 23 204 0.0 0.0 0.00 0.00 0.00 94 1016.2
20260906044508 23 219 0.0 0.0 0.00 0.00 0.00 94 1015.9
20260906044004 23 224 0.0 0.0 0.00 0.00 0.00 94 1016.0
20260906043459 23 224 0.0 0.0 0.00 0.00 0.00 94 1016.0
20260906042955 23 224 0.0 0.0 0.00 0.00 0.00 93 1015.9
20260906042454 23 224 0.0 0.0 0.00 0.00 0.00 93 1015.8
20260906041953 24 224 0.0 0.0 0.00 0.00 0.00 93 1015.9
20260906041450 24 224 0.0 0.0 0.00 0.00 0.00 93 1015.9
20260906040949 24 225 0.0 0.0 0.00 0.00 0.00 93 1015.8
20260906040444 24 212 0.0 0.0 0.00 0.00 0.00 92 1015.9
20260906035940 25 215 0.0 0.0 0.00 0.00 0.00 93 1015.6
20260906035435 25 221 0.0 0.0 0.00 0.00 0.00 92 1015.4
20260906034930 25 213 0.0 0.0 0.00 0.00 0.00 91 1015.6
20260906034425 25 207 0.0 0.0 0.00 0.00 0.00 91 1015.7
20260906033920 25 216 0.0 0.0 0.00 0.00 0.00 91 1015.5
20260906033415 25 207 0.0 0.0 0.00 0.00 0.00 91 1015.5
20260906032911 25 208 0.0 0.0 0.00 0.00 0.00 90 1015.7
20260906032407 25 212 0.0 0.0 0.00 0.00 0.00 90 1015.6
20260906031901 25 211 0.0 0.0 0.00 0.00 0.00 89 1015.3
20260906031356 25 213 0.0 0.0 0.00 0.00 0.00 89 1015.2
20260906030852 26 258 1.6 1.6 0.00 0.00 0.00 89 1015.4
20260906030346 26 212 0.0 0.0 0.00 0.00 0.00 89 1015.4
20260906025841 26 211 0.0 0.0 0.00 0.00 0.00 89 1015.4
20260906025335 26 180 1.6 1.6 0.00 0.00 0.00 89 1015.2
20260906024834 26 236 1.6 1.6 0.00 0.00 0.00 89 1015.2
20260906024333 26 211 0.0 1.6 0.00 0.00 0.00 89 1015.5
20260906023829 26 206 0.0 0.0 0.00 0.00 0.00 88 1015.2
20260906023324 26 233 0.0 0.0 0.00 0.00 0.00 88 1015.0
20260906022820 27 210 0.0 1.6 0.00 0.00 0.00 87 1014.8
20260906022315 27 218 1.6 3.2 0.00 0.00 0.00 87 1015.0
20260906021811 27 210 1.6 1.6 0.00 0.00 0.00 87 1014.6
20260906021309 27 226 1.6 1.6 0.00 0.00 0.00 87 1014.5
20260906020804 27 198 1.6 1.6 0.00 0.00 0.00 88 1014.3
20260906020304 27 204 1.6 1.6 0.00 0.00 0.00 88 1014.3
20260906015759 27 210 0.0 0.0 0.00 0.00 0.00 88 1014.4
20260906015257 27 150 1.6 1.6 0.00 0.00 0.00 89 1014.4
20260906014751 27 242 1.6 1.6 0.00 0.00 0.00 88 1014.2
20260906014247 27 233 1.6 1.6 0.00 0.00 0.00 89 1014.2
20260906013743 28 221 1.6 1.6 0.00 0.00 0.00 88 1014.1
20260906013243 28 198 3.2 3.2 0.00 0.00 0.00 88 1013.9
20260906012739 28 237 1.6 1.6 0.00 0.00 0.00 88 1014.0
20260906012234 28 241 3.2 4.8 0.00 0.00 0.00 87 1014.1
20260906011729 28 265 4.8 4.8 0.00 0.00 0.00 86 1013.9
20260906011229 28 221 1.6 3.2 0.00 0.00 0.00 86 1014.0
20260906010724 28 234 1.6 1.6 0.00 0.00 0.00 85 1013.6
20260906010220 28 221 0.0 1.6 0.00 0.00 0.00 85 1013.6
20260906005715 28 221 0.0 0.0 0.00 0.00 0.00 85 1013.8
20260906005215 29 220 0.0 0.0 0.00 0.00 0.00 85 1013.5
20260906004714 29 217 0.0 0.0 0.00 0.00 0.00 85 1013.4
20260906004209 29 223 0.0 0.0 0.00 0.00 0.00 85 1013.6
20260906003704 30 218 0.0 0.0 0.00 0.00 0.00 84 1013.5
20260906003159 30 219 0.0 0.0 0.00 0.00 0.00 84 1013.3
20260906002654 30 240 1.6 1.6 0.00 0.00 0.00 84 1013.4
20260906002149 30 222 0.0 0.0 0.00 0.00 0.00 84 1013.3
20260906001644 30 223 0.0 0.0 0.00 0.00 0.00 84 1013.4
20260906001144 30 221 0.0 0.0 0.00 0.00 0.00 84 1013.6
20260906000639 30 221 0.0 0.0 0.00 0.00 0.00 83 1013.7
20260906000135 30 221 0.0 0.0 0.00 0.00 0.00 81 1013.3
20260905235633 31 222 0.0 0.0 0.00 0.00 0.00 80 1013.4
20260905235129 31 222 0.0 0.0 0.00 0.00 0.00 79 1013.5
20260905234624 31 216 0.0 0.0 0.00 0.00 0.00 79 1013.4
20260905234120 31 221 0.0 0.0 0.00 0.00 0.00 79 1013.3
20260905233614 31 232 0.0 0.0 0.00 0.00 0.00 79 1013.4
20260905233108 31 216 0.0 0.0 0.00 0.00 0.00 78 1013.4
20260905232604 31 217 0.0 0.0 0.00 0.00 0.00 77 1013.5
20260905232059 31 219 1.6 1.6 0.00 0.00 0.00 77 1013.2
20260905231554 32 228 0.0 1.6 0.00 0.00 0.00 77 1013.3
20260905231051 32 218 0.0 0.0 0.00 0.00 0.00 78 1013.4
20260905230550 32 227 0.0 0.0 0.00 0.00 0.00 77 1013.1
20260905230049 32 220 0.0 0.0 0.00 0.00 0.00 77 1013.2
20260905225549 32 235 1.6 1.6 0.00 0.00 0.00 76 1013.2
20260905225044 32 228 1.6 1.6 0.00 0.00 0.00 76 1013.2
20260905224544 32 206 1.6 1.6 0.00 0.00 0.00 77 1013.3
20260905224043 31 226 0.0 0.0 0.00 0.00 0.00 79 1013.3
20260905223541 31 221 0.0 0.0 0.00 0.00 0.00 79 1013.1
20260905223037 31 226 0.0 1.6 0.00 0.00 0.00 78 1013.3
20260905222537 31 218 0.0 1.6 0.00 0.00 0.00 79 1013.3
20260905222032 31 220 0.0 0.0 0.00 0.00 0.00 78 1013.0
20260905221528 32 225 0.0 0.0 0.00 0.00 0.00 78 1013.2
20260905221024 32 220 0.0 1.6 0.00 0.00 0.00 78 1013.4
20260905220520 32 213 1.6 1.6 0.00 0.00 0.00 77 1013.2
20260905220016 32 217 0.0 1.6 0.00 0.00 0.00 76 1013.2
20260905215510 32 227 0.0 0.0 0.00 0.00 0.00 76 1013.3
20260905215006 32 311 4.8 4.8 0.00 0.00 0.00 74 1013.4
20260905214502 32 234 1.6 1.6 0.00 0.00 0.00 75 1013.3
20260905214002 32 195 0.0 0.0 0.00 0.00 0.00 74 1013.5
20260905213457 32 238 1.6 1.6 0.00 0.00 0.00 73 1013.3
20260905212953 32 216 0.0 0.0 0.00 0.00 0.00 73 1013.3
20260905212447 32 240 0.0 1.6 0.00 0.00 0.00 73 1013.3
20260905211946 33 244 1.6 1.6 0.00 0.00 0.00 71 1013.2
20260905211442 33 232 3.2 3.2 0.00 0.00 0.00 72 1013.0
20260905210938 33 203 3.2 3.2 0.00 0.00 0.00 70 1013.2
20260905210432 34 227 0.0 0.0 0.00 0.00 0.00 70 1013.3
20260905205932 33 219 0.0 0.0 0.00 0.00 0.00 70 1013.3
20260905205427 34 222 0.0 0.0 0.00 0.00 0.00 69 1013.4
20260905204926 33 224 0.0 0.0 0.00 0.00 0.00 69 1013.6
20260905204422 33 229 1.6 1.6 0.00 0.00 0.00 69 1013.3
20260905203921 34 228 0.0 0.0 0.00 0.00 0.00 69 1013.4
20260905203416 34 221 0.0 0.0 0.00 0.00 0.00 68 1013.4
20260905202912 34 213 1.6 1.6 0.00 0.00 0.00 68 1013.5
20260905202407 34 145 0.0 1.6 0.00 0.00 0.00 65 1013.5
20260905201902 34 245 3.2 3.2 0.00 0.00 0.00 65 1013.6
20260905201357 35 233 4.8 4.8 0.00 0.00 0.00 64 1013.5
20260905200851 35 239 1.6 1.6 0.00 0.00 0.00 64 1013.6
20260905200348 35 61 4.8 4.8 0.00 0.00 0.00 65 1013.6
20260905195846 35 219 1.6 1.6 0.00 0.00 0.00 67 1013.7
20260905195341 35 232 0.0 0.0 0.00 0.00 0.00 66 1013.7
20260905194837 35 222 0.0 0.0 0.00 0.00 0.00 69 1013.8
20260905194336 34 182 1.6 1.6 0.00 0.00 0.00 70 1013.9
20260905193836 34 280 1.6 3.2 0.00 0.00 0.00 67 1013.8
20260905193331 34 246 1.6 3.2 0.00 0.00 0.00 67 1013.7
20260905192827 35 246 3.2 3.2 0.00 0.00 0.00 65 1013.9
20260905192322 35 220 0.0 0.0 0.00 0.00 0.00 64 1013.8
20260905191821 35 255 1.6 1.6 0.00 0.00 0.00 66 1013.8
20260905191320 35 219 1.6 3.2 0.00 0.00 0.00 66 1013.8
20260905190819 35 222 0.0 1.6 0.00 0.00 0.00 68 1013.8
20260905190313 35 218 0.0 0.0 0.00 0.00 0.00 63 1013.8
20260905185811 35 228 0.0 0.0 0.00 0.00 0.00 65 1013.7
20260905185307 35 252 1.6 1.6 0.00 0.00 0.00 63 1013.8
20260905184801 35 258 1.6 1.6 0.00 0.00 0.00 66 1013.8
20260905184259 35 287 3.2 4.8 0.00 0.00 0.00 63 1014.1
20260905183753 35 241 1.6 3.2 0.00 0.00 0.00 62 1014.1
20260905183248 35 219 1.6 1.6 0.00 0.00 0.00 60 1014.1
20260905182747 35 243 4.8 8.0 0.00 0.00 0.00 63 1014.2
20260905182242 35 235 6.4 8.0 0.00 0.00 0.00 61 1014.2
20260905181737 35 211 1.6 1.6 0.00 0.00 0.00 60 1014.5
20260905181236 35 220 1.6 1.6 0.00 0.00 0.00 62 1014.4
20260905180732 35 255 3.2 3.2 0.00 0.00 0.00 63 1014.5
20260905180227 35 99 3.2 4.8 0.00 0.00 0.00 62 1014.4
20260905175726 35 92 4.8 4.8 0.00 0.00 0.00 64 1014.3
20260905175221 35 258 1.6 3.2 0.00 0.00 0.00 65 1014.4
20260905174716 35 221 1.6 1.6 0.00 0.00 0.00 63 1014.5
20260905174212 35 145 4.8 4.8 0.00 0.00 0.00 63 1014.5
20260905173708 35 196 1.6 1.6 0.00 0.00 0.00 62 1014.7
20260905173203 35 263 4.8 4.8 0.00 0.00 0.00 63 1015.0
20260905172703 35 268 4.8 4.8 0.00 0.00 0.00 64 1014.3
20260905172157 35 261 4.8 8.0 0.00 0.00 0.00 62 1014.6
20260905171653 35 343 4.8 8.0 0.00 0.00 0.00 63 1014.4
20260905171149 35 290 1.6 3.2 0.00 0.00 0.00 64 1014.4
20260905170646 35 213 0.0 1.6 0.00 0.00 0.00 62 1014.7
20260905170141 35 295 3.2 8.0 0.00 0.00 0.00 63 1014.5
20260905165640 34 300 3.2 3.2 0.00 0.00 0.00 66 1014.8
20260905165136 35 162 1.6 1.6 0.00 0.00 0.00 66 1014.8
20260905164631 35 165 0.0 0.0 0.00 0.00 0.00 66 1014.7
20260905164130 35 299 1.6 3.2 0.00 0.00 0.00 66 1014.5
20260905163626 35 308 1.6 1.6 0.00 0.00 0.00 63 1014.7
20260905163122 34 216 3.2 3.2 0.00 0.00 0.00 66 1014.7
20260905162618 34 228 1.6 3.2 0.00 0.00 0.00 65 1014.5
20260905162118 34 215 3.2 3.2 0.00 0.00 0.00 66 1014.7
20260905161617 34 232 1.6 1.6 0.00 0.00 0.00 66 1014.6
20260905161115 33 300 3.2 3.2 0.00 0.00 0.00 66 1014.7
20260905160615 33 216 1.6 3.2 0.00 0.00 0.00 67 1014.8
20260905160109 33 226 1.6 1.6 0.00 0.00 0.00 68 1015.1
20260905155604 33 259 6.4 8.0 0.00 0.00 0.00 66 1015.0
20260905155102 33 244 1.6 1.6 0.00 0.00 0.00 66 1014.7
20260905154557 33 220 1.6 1.6 0.00 0.00 0.00 69 1014.7
20260905154053 33 209 0.0 0.0 0.00 0.00 0.00 68 1014.7
20260905153548 33 234 1.6 1.6 0.00 0.00 0.00 69 1014.6
20260905153048 32 223 0.0 1.6 0.00 0.00 0.00 70 1014.4
20260905152543 32 228 3.2 3.2 0.00 0.00 0.00 69 1014.6
20260905152038 32 243 4.8 4.8 0.00 0.00 0.00 69 1014.6
20260905151533 32 145 1.6 1.6 0.00 0.00 0.00 69 1014.6
20260905151029 32 227 1.6 1.6 0.00 0.00 0.00 70 1014.7
20260905150524 32 208 0.0 0.0 0.00 0.00 0.00 71 1014.6
20260905150021 32 253 3.2 3.2 0.00 0.00 0.00 73 1014.5
20260905145514 32 243 4.8 4.8 0.00 0.00 0.00 71 1014.4
20260905145009 32 235 0.0 1.6 0.00 0.00 0.00 74 1014.4
20260905144504 32 212 1.6 1.6 0.00 0.00 0.00 76 1014.2
20260905144003 31 213 0.0 0.0 0.00 0.00 0.00 75 1014.5
20260905143502 31 209 1.6 1.6 0.00 0.00 0.00 76 1014.0
20260905142957 30 240 3.2 3.2 0.00 0.00 0.00 75 1014.0
20260905142456 31 227 1.6 1.6 0.00 0.00 0.00 77 1014.0
20260905141951 30 229 3.2 3.2 0.00 0.00 0.00 76 1013.9
20260905141446 30 224 1.6 3.2 0.00 0.00 0.00 76 1014.0
20260905140943 30 212 0.0 1.6 0.00 0.00 0.00 78 1014.1
20260905140437 30 214 0.0 0.0 0.00 0.00 0.00 78 1014.0
20260905135936 30 215 1.6 1.6 0.00 0.00 0.00 78 1014.1
20260905135432 29 210 0.0 0.0 0.00 0.00 0.00 79 1013.9
20260905134927 29 224 0.0 0.0 0.00 0.00 0.00 80 1013.9
20260905134426 28 218 0.0 0.0 0.00 0.00 0.00 82 1014.0
20260905133920 28 212 0.0 0.0 0.00 0.00 0.00 83 1014.0
20260905133415 28 205 0.0 0.0 0.00 0.00 0.00 83 1014.1
20260905132914 28 213 0.0 0.0 0.00 0.00 0.00 84 1014.4
20260905132410 27 210 0.0 0.0 0.00 0.00 0.00 88 1014.4
20260905131904 27 218 0.0 0.0 0.00 0.00 0.00 90 1014.2
20260905131400 26 213 0.0 0.0 0.00 0.00 0.00 93 1014.2
20260905130855 25 212 0.0 0.0 0.00 0.00 0.00 98 1014.2
20260905130354 24 216 0.0 0.0 0.00 0.00 0.00 99 1014.1
20260905125849 25 216 0.0 0.0 0.00 0.00 0.00 99 1014.1
20260905125344 24 216 0.0 0.0 0.00 0.00 0.00 99 1014.3
20260905124840 23 217 0.0 0.0 0.00 0.00 0.00 99 1014.3
20260905124336 23 217 0.0 0.0 0.00 0.00 0.00 99 1014.2
20260905123836 23 217 0.0 0.0 0.00 0.00 0.00 99 1014.0
20260905123333 23 217 0.0 0.0 0.00 0.00 0.00 99 1014.0
20260905122833 23 217 0.0 0.0 0.00 0.00 0.00 99 1014.0
20260905122332 23 216 0.0 0.0 0.00 0.00 0.00 99 1014.1
20260905121827 23 218 0.0 0.0 0.00 0.00 0.00 99 1014.0
20260905121324 23 218 0.0 0.0 0.00 0.00 0.00 99 1014.0
20260905120822 23 218 0.0 0.0 0.00 0.00 0.00 99 1013.9
20260905120317 23 218 0.0 0.0 0.00 0.00 0.00 99 1013.7
20260905115812 22 218 0.0 0.0 0.00 0.00 0.00 99 1013.6
20260905115312 22 217 0.0 0.0 0.00 0.00 0.00 99 1013.7
20260905114812 23 215 0.0 0.0 0.00 0.00 0.00 99 1013.7
20260905114311 23 215 0.0 0.0 0.00 0.00 0.00 99 1013.7
20260905113810 22 215 0.0 0.0 0.00 0.00 0.00 99 1013.7
20260905113306 22 215 0.0 0.0 0.00 0.00 0.00 99 1013.8
20260905112801 22 215 0.0 0.0 0.00 0.00 0.00 99 1013.3
20260905112255 23 215 0.0 0.0 0.00 0.00 0.00 99 1013.5
20260905111750 23 216 0.0 0.0 0.00 0.00 0.00 99 1013.9
20260905111245 23 216 0.0 0.0 0.00 0.00 0.00 99 1013.5
20260905110744 23 217 0.0 0.0 0.00 0.00 0.00 99 1013.4
20260905110238 23 217 0.0 0.0 0.00 0.00 0.00 99 1013.4
20260905105734 23 227 0.0 0.0 0.00 0.00 0.00 99 1013.4
20260905105233 23 221 0.0 0.0 0.00 0.00 0.00 99 1013.5
20260905104728 23 212 0.0 0.0 0.00 0.00 0.00 99 1013.5
20260905104224 23 226 0.0 0.0 0.00 0.00 0.00 99 1013.3
20260905103719 23 217 0.0 0.0 0.00 0.00 0.00 99 1013.4
20260905103215 23 216 0.0 0.0 0.00 0.00 0.00 99 1013.5
20260905102710 23 225 0.0 0.0 0.00 0.00 0.00 99 1013.4
20260905102207 23 225 0.0 0.0 0.00 0.00 0.00 99 1013.4
20260905101705 23 225 0.0 0.0 0.00 0.00 0.00 99 1013.4
20260905101204 23 225 0.0 0.0 0.00 0.00 0.00 99 1013.6
20260905100701 23 225 0.0 0.0 0.00 0.00 0.00 99 1013.4
20260905100155 23 225 0.0 0.0 0.00 0.00 0.00 99 1013.5
20260905095654 23 225 0.0 0.0 0.00 0.00 0.00 99 1013.4
20260905095149 23 225 0.0 0.0 0.00 0.00 0.00 99 1013.3
20260905094644 23 225 0.0 0.0 0.00 0.00 0.00 99 1013.3
20260905094143 23 225 0.0 0.0 0.00 0.00 0.00 99 1013.2
20260905093638 23 225 0.0 0.0 0.00 0.00 0.00 99 1013.5
20260905093135 23 225 0.0 0.0 0.00 0.00 0.00 99 1013.4
20260905092634 23 225 0.0 0.0 0.00 0.00 0.00 99 1013.5
20260905092130 23 225 0.0 0.0 0.00 0.00 0.00 99 1013.6
20260905091629 23 225 0.0 0.0 0.00 0.00 0.00 99 1013.6
20260905091124 23 225 0.0 0.0 0.00 0.00 0.00 99 1013.5
20260905090619 23 225 0.0 0.0 0.00 0.00 0.00 99 1013.7
20260905090114 23 225 0.0 0.0 0.00 0.00 0.00 99 1013.7
20260905085612 23 225 0.0 0.0 0.00 0.00 0.00 99 1013.4
20260905085109 23 225 0.0 0.0 0.00 0.00 0.00 99 1013.7
20260905084607 23 225 0.0 0.0 0.00 0.00 0.00 99 1013.5
20260905084103 23 225 0.0 0.0 0.00 0.00 0.00 99 1013.5
20260905083557 23 225 0.0 0.0 0.00 0.00 0.00 99 1013.7
20260905083054 23 225 0.0 0.0 0.00 0.00 0.00 99 1013.7
20260905082549 23 225 0.0 0.0 0.00 0.00 0.00 99 1013.8
20260905082045 23 225 0.0 0.0 0.00 0.00 0.00 99 1013.7
20260905081544 23 225 0.0 0.0 0.00 0.00 0.00 99 1013.9
20260905081039 23 225 0.0 0.0 0.00 0.00 0.00 99 1013.9
20260905080538 23 225 0.0 0.0 0.00 0.00 0.00 99 1013.6
20260905080033 23 225 0.0 0.0 0.00 0.00 0.00 99 1013.7
20260905075526 23 225 0.0 0.0 0.00 0.00 0.00 99 1013.9
20260905075021 23 225 0.0 0.0 0.00 0.00 0.00 99 1013.8
20260905074516 23 225 0.0 0.0 0.00 0.00 0.00 99 1013.8
20260905074011 23 225 0.0 0.0 0.00 0.00 0.00 99 1013.6
20260905073506 23 225 0.0 0.0 0.00 0.00 0.00 99 1014.1
20260905073002 23 225 0.0 0.0 0.00 0.00 0.00 99 1013.9
20260905072456 23 225 0.0 0.0 0.00 0.00 0.00 99 1014.1
20260905071951 23 225 0.0 0.0 0.00 0.00 0.00 99 1014.0
20260905071449 23 225 0.0 0.0 0.00 0.00 0.00 99 1014.1
20260905070947 24 225 0.0 0.0 0.00 0.00 0.00 99 1014.0
20260905070444 24 225 0.0 0.0 0.00 0.00 0.00 99 1014.2
20260905065938 24 225 0.0 0.0 0.00 0.00 0.00 99 1013.9
20260905065436 24 225 0.0 0.0 0.00 0.00 0.00 99 1014.1
20260905064932 24 225 0.0 0.0 0.00 0.00 0.00 99 1014.0
20260905064426 24 225 0.0 0.0 0.00 0.00 0.00 99 1014.0
20260905063921 24 225 0.0 0.0 0.00 0.00 0.00 99 1013.7
20260905063415 24 225 0.0 0.0 0.00 0.00 0.00 99 1013.7
20260905062912 24 225 0.0 0.0 0.00 0.00 0.00 99 1013.9
20260905062406 24 225 0.0 0.0 0.00 0.00 0.00 99 1014.0
20260905061901 24 225 0.0 0.0 0.00 0.00 0.00 99 1014.0
20260905061400 24 225 0.0 0.0 0.00 0.00 0.00 99 1014.0
20260905060855 24 225 0.0 0.0 0.00 0.00 0.00 99 1013.9
20260905060352 24 225 0.0 0.0 0.00 0.00 0.00 99 1014.1
20260905055851 25 225 0.0 0.0 0.00 0.00 0.00 99 1014.1
20260905055347 25 225 0.0 0.0 0.00 0.00 0.00 99 1014.2
20260905054846 25 225 0.0 0.0 0.00 0.00 0.00 99 1014.2
20260905054342 25 225 0.0 0.0 0.00 0.00 0.00 99 1014.4
20260905053842 25 225 0.0 0.0 0.00 0.00 0.00 99 1014.2
20260905053342 25 225 0.0 0.0 0.00 0.00 0.00 99 1014.1